Location: Kenockee Observatory
(43.0173°N, 82.7297°W)
Time: 07:40:13
(UTC-05:00)

Daily predictions for brighter satellites

Satellite Brightness Start Highest point End
(mag) Time Altitude Azimuth Time Altitude Azimuth Time Altitude Azimuth
Cosmos 1603 4.3 17:46:50 10° SW 17:52:30 61° WNW 17:58:14 10° NNE
NOSS 2-1 (D) 3.7 17:49:52 10° SW 17:53:30 61° NW 17:57:35 10° NNE
Cosmos 1809 Rocket 4.4 17:48:20 10° N 17:54:28 80° E 18:00:32 10° S
Cosmos 1503 Rocket 4.4 17:50:04 10° NNW 17:55:23 73° WSW 18:00:42 10° S
Tiangong 1 0.4 17:56:37 10° W 17:59:07 87° S 18:01:35 10° E
CZ-2C R/B 4.2 17:55:14 10° NNE 17:59:44 43° E 18:04:09 10° S
Cosmos 2154 Rocket 4.4 17:56:25 10° N 18:02:44 75° W 18:09:02 10° S
Cosmos 1992 Rocket 4.0 17:57:46 10° SSW 18:02:58 90° WNW 18:08:13 10° NNE
YAOGAN 1 2.8 17:59:21 10° SE 18:03:29 46° ENE 18:07:38 10° N
Meteor 2-21 Rocket 4.4 17:57:41 10° N 18:03:49 72° E 18:09:51 10° SSE
Cosmos 1400 Rocket 3.0 18:00:09 10° S 18:04:06 54° E 18:08:07 10° NNE
Cosmos 44 4.2 18:03:58 10° SSE 18:07:27 25° ESE 18:11:02 10° ENE
Cosmos 1674 3.4 18:04:34 10° SSW 18:08:15 55° W 18:11:56 10° N
Cosmos 2181 Rocket 4.1 18:06:39 10° S 18:13:04 74° E 18:19:29 10° NNE
Geosat 4.1 18:08:48 10° NNE 18:13:52 85° WNW 18:18:53 10° SSW
CZ-4 R/B 4.5 18:10:10 10° SSE 18:14:11 57° ENE 18:18:16 10° N
ATLAS 2AS CENTAUR R/B 3.4 18:07:09 10° NW 18:15:00 67° WSW 18:22:12 10° SSE
SMAP 3.6 18:11:04 10° S 18:15:40 65° WSW 18:20:20 10° NNW
Cosmos 968 Rocket 3.4 18:12:01 10° NNW 18:17:12 80° ENE 18:22:19 10° SSE
Cosmos 2221 2.6 18:15:02 10° N 18:19:24 83° W 18:23:47 10° S
Landsat 4 4.3 18:17:26 10° NNE 18:20:55 36° E 18:24:21 10° SSE
Cosmos 1626 3.1 18:20:12 10° SSE 18:23:20 26° E 18:26:28 10° NNE
MTI 4.3 18:21:23 10° NNE 18:24:24 38° E 18:27:24 10° S
Cosmos 2098 Rocket 4.4 18:20:07 10° NNE 18:24:43 31° ENE 18:30:15 10° SE
Cosmos 2369 Rocket 3.5 18:24:04 10° NW 18:29:28 46° WSW 18:34:50 10° S
SL-8 Rocket 3.9 18:23:56 10° N 18:30:09 81° E 18:36:23 10° S
Cosmos 2058 4.3 18:27:46 10° SE 18:30:41 19° E 18:31:53 17° ENE
Cosmos 1656 Rocket 3.7 18:28:14 10° NNW 18:33:37 56° ENE 18:39:02 10° SE
Cosmos 2218 Rocket 3.9 18:29:00 10° N 18:35:11 74° E 18:41:18 10° SSE
Cosmos 1300 2.7 18:31:24 10° N 18:35:15 86° W 18:39:04 10° S
Cosmos 1408 Rocket 3.8 18:32:12 10° SSE 18:36:18 46° E 18:40:26 10° NNE
Cosmos 44 Rocket 3.7 18:32:45 10° S 18:37:06 40° ESE 18:40:13 18° NE
NOAA 12 4.1 18:32:23 10° SSE 18:37:31 61° ENE 18:42:42 10° N
NOSS 3-4 (A) 3.9 18:30:50 10° NNW 18:37:45 61° NE 18:45:12 10° SE
NOSS 3-4 (C) 3.9 18:30:56 10° NNW 18:37:52 61° NE 18:45:18 10° SE
Cosmos 1959 Rocket 4.5 18:33:10 10° N 18:39:31 80° E 18:45:53 10° S
Cosmos 1943 Rocket 3.0 18:35:16 10° NNW 18:40:44 55° WSW 18:46:07 10° S
ERS-2 2.5 18:38:41 10° SE 18:42:09 41° ENE 18:45:39 10° N
COSMO-SKYMED 1 2.5 18:38:38 10° NNE 18:43:00 85° E 18:47:20 10° SSW
SL-14 R/B 3.6 18:39:45 10° SSW 18:43:43 70° W 18:47:41 10° N
Cosmos 2151 4.0 18:40:39 10° SE 18:44:07 25° E 18:45:08 22° ENE
Envisat 4.5 18:48:34 17° NE 18:48:34 17° NE 18:50:51 10° NNE
CZ-4 R/B 3.2 18:46:24 10° SSW 18:50:17 36° W 18:54:14 10° NNW
Cosmos 1076 Rocket 4.3 18:47:48 10° SSW 18:52:05 56° W 18:56:24 10° N
Cosmos 2228 Rocket 3.6 18:48:47 10° N 18:53:03 37° ENE 18:57:19 10° SE
SL-08 R/B 4.4 18:47:52 10° N 18:54:07 84° E 19:00:14 10° S
SL-24 R/B - RUBIN 2 3.4 18:50:12 10° NNW 18:54:46 85° NE 18:59:05 10° SE
Meteor 2-8 Rocket 4.5 18:50:35 10° S 18:56:43 88° W 19:02:55 10° N
ALOS 2.6 18:56:44 10° S 19:01:22 69° WSW 19:06:03 10° NNW
FENGYUN 3A 3.8 18:57:14 10° S 19:02:34 75° WSW 19:07:57 10° NNW
Cosmos 1743 Rocket 3.8 18:59:04 10° SSE 19:03:13 44° E 19:05:03 28° NE
TSX-5 3.7 19:04:09 10° SW 19:07:17 62° WNW 19:09:01 26° NNE
Cosmos 1328 Rocket 3.4 19:03:30 10° N 19:07:54 71° E 19:12:12 10° SSE
Thor Agena Rocket 4.1 19:07:19 31° ENE 19:08:35 35° E 19:13:19 10° SSE
Meteor 1-27 4.1 19:03:00 10° N 19:08:43 73° E 19:14:29 10° SSE
Cosmos 1346 Rocket 2.6 19:07:15 10° N 19:11:11 88° E 19:15:04 10° S
Cosmos 1315 Rocket 3.7 19:07:34 10° SSW 19:11:23 49° WNW 19:15:12 10° N
Meteor 1-11 4.1 19:06:31 10° S 19:12:06 82° E 19:17:47 10° NNE
Cosmos 2366 rocket 4.4 19:06:00 10° NNW 19:12:10 65° W 19:18:15 10° S
Cosmos 909 Rocket 4.2 19:07:35 10° NNW 19:14:25 55° NE 19:18:03 25° ESE
Cosmos 1821 Rocket 4.1 19:12:28 10° N 19:18:26 50° ENE 19:24:26 10° SSE
H-2A R/B 2.6 19:17:20 10° SSE 19:21:08 87° W 19:25:00 10° NNW
COSMOS 2406 3.2 19:15:36 10° S 19:21:14 61° ESE 19:23:39 34° NE
TIMED 4.4 19:17:54 10° NNW 19:22:17 67° ENE 19:23:37 42° SE
FengYun 1-2 T 4.2 19:22:25 10° SSE 19:28:04 90° ENE 19:33:43 10° NNW
SPOT 3 Rocket 4.4 19:23:49 10° S 19:28:48 51° W 19:33:50 10° NNW
Nadezhda 3 Rocket 3.9 19:24:25 10° S 19:30:44 81° E 19:37:08 10° N
Tiangong 1 3.3 19:31:00 10° W 19:32:00 19° WSW 19:32:00 19° WSW
Cosmos 1455 2.1 19:29:35 10° N 19:33:28 82° W 19:37:17 10° S
USA 81 4.0 19:35:51 10° S 19:41:07 88° W 19:46:27 10° N
Cosmos 371 Rocket 3.1 19:39:40 10° SSW 19:44:15 76° SE 19:44:15 76° SE
Cosmos 1151 Rocket 3.2 19:41:28 10° NNW 19:45:51 72° W 19:50:12 10° S
Cosmos 44 4.3 19:44:25 10° WSW 19:48:27 37° NW 19:49:36 31° NNW
Cosmos 2208 Rocket 4.4 19:47:12 10° S 19:51:09 49° SSE 19:51:09 49° SSE
Cosmos 1934 Rocket 3.9 19:51:54 10° N 19:58:16 75° E 20:00:15 47° SSE
GEOS 3 Rocket 3.8 19:59:26 56° S 20:00:30 73° SW 20:05:54 10° NW
BREEZE-M DEB (TANK) 4.4 19:58:59 10° W 20:00:17 18° WNW 20:00:17 18° WNW
Cosmos 2058 4.4 20:03:31 10° SW 20:07:21 35° WNW 20:08:12 31° NW
Lacrosse 5 4.5 20:32:52 10° SSW 20:33:08 11° SSW 20:33:08 11° SSW
